Current weather by "City, St" or "zip code"  
 

Current Conditions: Great Falls, Great Falls International Airport, MT

Overcast


44.0 F

Last Updated on Oct 31 2020, 3:53 am MDT
Humidity: 47%
Wind Speed: SW 17.3 mph
Barometer 30.00 in
Dewpoint: 25.0 F
Visibility: 10.00 mi
Precip: --
Heat Index: NA
Wind Chill: 36 F
Current conditions at:

Great Falls, Great Falls International Airport, MT (KGTF)

Lat: 47.47333 Lon: 111.38222

Local Radar Image active severe weather and emergency alerts image image weather storm and storm spotter reports image weather observation monitoring service image
Local
Radar
Active
Alerts
Storm Reports Obs
Monitoring

Sign-up For Email & Text Message Weather Alert Notification Services



Advertise Here

Observation History for Great Falls, Great Falls International Airport, MT


Time Wind
(mph)
Vis
(mi)
Weather Precip (in) Temperature (F) Relative
Humidity
Wind
Chill
(F)
Heat
Index
(F)
Pressure
Air Dwpt altimeter
(in)
sea level
(mb)
Rmks
3:53 am MDT SW 17.3 10.00 Overcast -- 44.0 25.0 47% 36 NA 30.00 1016.2
2:53 am MDT SW 16.1 10.00 Overcast -- 44.0 25.0 47% 37 NA 29.96 1014.0
1:53 am MDT SW 17.3 10.00 Mostly Cloudy -- 45.0 25.0 46% 38 NA 29.91 1012.0
12:53 am MDT SW 10.4 10.00 Fair -- 43.0 25.0 49% 37 NA 29.88 1011.3
11:53 pm MDT SW 15.0 G 27.6 10.00 Fair -- 44.0 28.0 53% 37 NA 29.84 1009.8
10:53 pm MDT SW 11.5 10.00 A Few Clouds -- 42.0 26.1 53% 36 NA 29.83 1010.3
9:53 pm MDT SW 16.1 G 24.2 10.00 Fair -- 44.0 23.0 43% 37 NA 29.78 1008.7
8:53 pm MDT W 18.4 G 32.2 10.00 Fair -- 47.0 24.1 41% 40 NA 29.75 1007.8
7:53 pm MDT W 27.6 G 38.0 10.00 Fair and Windy -- 47.0 21.0 36% 38 NA 29.71 1006.8
6:53 pm MDT W 19.6 10.00 Fair -- 47.0 21.0 36% 40 NA 29.68 1005.9
5:53 pm MDT W 27.6 G 42.6 10.00 Fair and Windy -- 50.0 23.0 35% 42 NA 29.64 1004.2
4:53 pm MDT W 39.1 G 51.8 10.00 Fair and Windy -- 52.0 30.9 45% 44 NA 29.60 1003.0
3:53 pm MDT W 38.0 G 55.2 10.00 Partly Cloudy and Windy -- 57.0 28.9 34% 51 NA 29.55 1000.8
2:53 pm MDT W 33.4 G 46.0 10.00 Fair and Windy -- 68.0 21.9 17% NA NA 29.51 998.3
1:53 pm MDT SW 32.2 G 50.6 10.00 Fair and Windy -- 68.0 21.0 17% NA NA 29.52 998.8
12:53 pm MDT SW 35.7 G 49.5 10.00 Fair and Windy -- 67.0 21.0 17% NA NA 29.55 1000.2
11:53 am MDT SW 24.2 G 34.5 10.00 Fair and Breezy -- 65.0 23.0 20% NA NA 29.61 1002.4
10:53 am MDT SW 21.9 10.00 Fair and Breezy -- 57.0 23.0 27% 53 NA 29.66 1005.1
9:53 am MDT SW 19.6 10.00 Fair -- 55.0 25.0 31% 50 NA 29.70 1006.5
8:53 am MDT SW 21.9 10.00 Fair and Breezy -- 51.0 25.0 36% 45 NA 29.74 1007.6
7:53 am MDT SW 18.4 10.00 Fair -- 47.0 25.0 42% 40 NA 29.77 1009.5
6:53 am MDT SW 11.5 10.00 Fair -- 47.0 25.0 42% 42 NA 29.81 1010.1
5:53 am MDT SW 13.8 10.00 Fair -- 46.0 26.1 46% 40 NA 29.85 1011.2
4:53 am MDT S 10.4 10.00 Fair -- 43.0 25.0 49% 37 NA 29.89 1012.4

Regional Weather Observation


Malmstrom Air Force Base, MT (KGFA)

Overcast
42.0 F

Cut Bank, Cut Bank Municipal Airport, MT (KCTB)

Overcast and Breezy
37.0 F

Helena Regional Airport, MT (KHLN)

Fair
44.0 F

Lewistown, Lewistown Municipal Airport, MT (KLWT)

Overcast
42.0 F

Havre, Havre City-County Airport, MT (KHVR)

Overcast
41.0 F

Drummond, MT (K3DU)

Mostly Cloudy
74.0 F